Temp
15 14 10 9 9 9 8 8 8 8 8 8 7 7 8 9 9 9 9 9 9 9 9 10 10 10 10 10 10 9 9 7 5 4 3 3 2 1 -0 -0 -1 -3 -4
13 12 9 8 8 8 7 7 7 7 7 6 6 7 7 7 7 8 8 8 8 8 8 8 8 8 9 9 10 10 9 8 4 2 3 2 1 1 0 0 -1 -3 -2
11 11 9 8 7 6 6 6 6 6 6 5 5 5 5 5 6 6 6 7 7 7 7 7 7 7 8 8 8 8 7 5 3 2 2 2 1 1 1 1 0 -1 -2
9 9 7 7 6 5 5 5 5 5 5 4 4 3 4 4 5 5 5 5 5 5 6 6 7 7 7 8 8 7 5 4 2 1 1 1 1 1 1 -0 -1 -1 -3
10 9 7 5 4 4 3 3 3 3 3 3 2 2 2 3 3 4 4 4 4 4 4 5 5 6 6 7 6 6 4 3 1 0 -1 -1 -1 -1 -0 -1 -1 -1 -2
7 5 4 3 3 2 2 2 1 1 1 1 0 0 1 1 2 3 3 3 2 3 1 2 3 4 4 5 5 4 4 2 -0 -1 -2 -2 -3 -2 -2 -2 -3 -3 -4
4 4 2 2 1 1 0 0 -0 -1 -0 -0 -0 -0 -0 0 1 1 1 1 0 0 1 2 1 2 3 3 2 2 2 1 1 -0 -1 -2 -3 -2 -3 -2 -2 -2 -3
2 1 1 0 -0 -1 -1 -1 -1 -1 -1 -1 -1 -1 -1 -1 -0 0 0 -0 0 -0 1 0 1 0 1 1 1 1 1 1 1 -0 -1 -2 -2 -2 -2 -2 -2 -2 -3
1 -0 -0 -1 -1 -1 -1 -1 -1 -1 -1 -1 -1 -1 -1 -1 -0 -1 -1 -1 -0 -0 -0 -0 -1 -1 -1 -0 0 -0 -1 -2 -1 -1 -2 -2 -2 -2 -2 -2 -2 -2 -3
-0 -0 -1 -1 -1 -1 -1 -1 -1 -1 -1 -1 -1 -1 -1 -1 -1 -1 1 1 1 1 0 -0 -1 -1 -1 -1 -2 -2 -4 -4 -2 -3 -3 -3 -3 -4 -3 -3 -2 -2 -2
-0 -1 -1 -1 -1 -1 -1 -1 -1 -1 -1 -1 -1 -2 -2 -2 -1 1 2 1 0 -0 -1 -1 -1 -1 -1 -2 -2 -3 -4 -4 -4 -4 -5 -6 -6 -5 -5 -4 -4 -4 -4
-0 -1 -1 -1 -1 -1 -0 -0 -1 -0 -0 -1 -2 -2 -2 -1 -0 1 1 0 -1 -1 -2 -2 -2 -2 -1 -2 -3 -4 -5 -5 -6 -7 -7 -7 -7 -7 -7 -6 -6 -6 -6
-1 -1 -1 -0 -0 -0 -0 -0 -0 -1 -0 -1 -1 -2 -3 -2 -1 -0 -0 -1 -1 -3 -3 -3 -3 -3 -2 -2 -3 -4 -5 -6 -6 -6 -7 -7 -8 -8 -8 -7 -8 -8 -8
0 -1 -0 -0 -0 -0 0 -0 -0 -1 -0 -1 -1 -2 -3 -3 -3 -2 -1 -2 -3 -4 -3 -4 -4 -4 -4 -5 -5 -5 -6 -6 -6 -6 -7 -7 -8 -8 -9 -8 -8 -9 -9
1 -0 -1 -1 -0 -0 0 0 -0 -0 -0 -0 -1 -2 -3 -3 -4 -3 -3 -3 -4 -5 -5 -6 -6 -6 -7 -7 -6 -6 -6 -6 -6 -6 -7 -8 -8 -8 -9 -9 -8 -8 -8
0 -0 -1 -1 -1 -0 -0 -1 -0 -0 -0 0 -1 -2 -3 -3 -3 -3 -3 -4 -4 -5 -6 -6 -6 -7 -7 -7 -7 -7 -7 -6 -6 -7 -7 -8 -8 -8 -8 -9 -9 -8 -8
2 -0 -1 -1 -1 -1 -1 -1 -1 -1 0 0 -1 -2 -2 -3 -3 -4 -4 -4 -4 -5 -6 -6 -6 -6 -7 -7 -7 -7 -7 -7 -7 -7 -7 -7 -7 -7 -8 -8 -9 -8 -8
1 -0 -1 -1 -1 -1 -1 -1 -1 -1 -1 -1 -1 -1 -2 -3 -4 -4 -4 -5 -5 -5 -5 -5 -5 -5 -6 -6 -6 -6 -7 -7 -7 -7 -6 -7 -7 -7 -7 -8 -8 -8 -8
0 -1 -1 -1 -1 -1 -1 -1 -1 -1 -1 -2 -2 -2 -2 -3 -4 -4 -5 -5 -5 -4 -4 -4 -4 -4 -4 -5 -5 -6 -6 -6 -6 -7 -7 -7 -7 -7 -8 -8 -7 -8 -8
-1 -1 -1 -1 -1 -1 -1 -1 -1 -2 -2 -2 -2 -3 -4 -4 -4 -5 -5 -5 -4 -3 -3 -4 -4 -4 -4 -3 -4 -5 -5 -6 -6 -6 -7 -7 -7 -7 -7 -8 -7 -8 -8
-1 -1 -1 -1 -1 -1 -1 -1 -1 -2 -2 -2 -2 -3 -4 -4 -4 -5 -5 -4 -4 -3 -3 -3 -4 -4 -3 -3 -3 -4 -5 -6 -6 -6 -7 -7 -7 -8 -7 -7 -7 -8 -8
-2 -2 -2 -1 -1 -1 -1 -1 -1 -2 -2 -2 -3 -3 -4 -4 -4 -5 -4 -4 -4 -3 -3 -3 -3 -4 -3 -3 -4 -4 -5 -5 -6 -6 -6 -7 -7 -7 -7 -8 -8 -8 -8
-1 -1 -1 -1 -1 -1 -1 -1 -1 -2 -2 -2 -3 -3 -4 -3 -3 -4 -4 -4 -4 -3 -3 -3 -3 -3 -4 -4 -4 -4 -5 -5 -6 -6 -6 -6 -7 -7 -7 -7 -8 -8 -8
-1 -1 -1 -1 -1 -1 -1 -1 -2 -2 -2 -2 -3 -3 -3 -3 -3 -3 -4 -4 -4 -3 -4 -3 -3 -4 -4 -4 -4 -4 -5 -5 -5 -5 -6 -6 -6 -7 -7 -7 -8 -8 -9
-1 -1 -1 -1 -1 -1 -1 -2 -2 -2 -2 -2 -3 -3 -3 -3 -3 -3 -3 -4 -4 -3 -4 -4 -3 -4 -4 -4 -4 -5 -5 -5 -5 -5 -6 -6 -6 -7 -7 -7 -8 -9 -10
-1 -1 -1 -1 -1 -1 -1 -1 -2 -2 -2 -2 -3 -4 -3 -3 -2 -3 -3 -3 -3 -3 -4 -4 -4 -5 -4 -4 -5 -5 -5 -5 -6 -6 -6 -7 -7 -7 -8 -8 -9 -10 -11
Height
668 669 672 679 685 688 690 692 696 700 705 709 716 722 725 729 727 737 747 751 756 765 773 780 786 790 798 806 806 809 816 822 828 843 847 852 859 862 864 868 869 869 873
659 664 671 677 680 681 683 686 689 696 702 706 713 719 720 727 738 732 741 748 753 761 771 779 781 789 800 804 805 806 813 817 823 835 846 851 857 862 865 866 868 871 873
659 661 666 668 676 676 678 681 686 689 698 705 712 717 725 728 733 740 740 747 755 759 770 777 776 789 797 802 803 807 811 816 823 829 841 849 856 859 863 868 869 868 870
657 661 658 664 670 670 673 677 681 686 692 701 710 718 726 733 732 741 745 744 758 764 771 771 782 787 795 797 802 806 811 815 824 830 840 848 854 859 863 865 869 868 870
655 656 658 661 664 667 669 672 675 682 689 696 706 714 726 730 735 743 745 745 756 764 769 779 784 787 795 800 804 807 808 814 823 830 839 845 851 855 859 863 866 868 870
657 657 657 658 661 664 666 670 675 682 688 696 704 713 722 730 740 738 748 742 758 767 773 780 780 786 798 801 806 807 809 814 822 830 838 844 850 853 858 861 864 867 868
657 654 656 658 660 664 668 671 675 683 690 698 704 712 723 728 741 743 741 748 762 769 776 778 781 791 799 803 809 810 813 818 822 826 834 839 844 848 853 858 862 864 867
656 656 656 659 661 665 670 674 679 685 690 698 709 715 722 732 735 737 745 753 764 772 776 779 783 792 800 805 807 809 814 819 823 829 835 838 844 847 851 853 858 862 866
658 658 659 661 664 668 672 678 682 687 693 702 709 715 720 728 734 741 749 758 765 772 777 782 787 793 802 805 804 808 813 818 827 831 835 838 843 845 848 851 855 860 864
660 661 662 665 668 671 675 680 686 692 698 705 711 716 722 730 738 744 752 757 764 772 780 786 792 797 802 804 805 808 814 822 825 831 836 839 845 844 846 849 851 856 858
661 662 664 667 671 675 678 683 688 694 701 707 712 719 727 733 738 746 751 757 763 772 779 785 791 796 799 801 805 809 815 822 828 830 836 840 842 844 845 848 850 853 855
663 664 668 670 674 679 682 687 691 696 703 709 715 723 730 736 742 747 752 758 765 770 777 784 790 795 798 802 806 811 819 823 829 831 836 840 841 844 845 847 850 853 855
667 668 670 673 674 680 685 690 695 699 703 710 716 724 732 739 744 749 756 762 768 773 778 784 789 795 799 805 810 813 819 823 827 831 836 839 841 843 844 847 850 853 856
667 669 672 675 677 680 685 691 695 699 705 712 718 725 733 739 745 751 757 763 770 774 779 785 790 796 800 804 807 812 817 823 826 830 834 837 839 842 844 848 850 854 856
668 670 673 676 678 681 685 688 694 700 705 710 717 720 726 735 741 747 754 760 767 771 780 787 792 797 800 804 808 811 817 821 825 830 832 835 838 841 844 847 851 854 856
667 670 673 676 679 682 686 689 697 702 709 714 718 721 730 735 741 747 753 759 767 773 779 784 790 796 799 802 806 811 815 819 824 827 830 833 836 839 843 847 850 853 856
664 668 671 674 678 681 685 689 693 702 709 714 719 723 728 730 739 746 754 760 766 773 778 783 787 791 795 800 805 809 812 817 821 825 828 831 834 839 842 846 849 852 854
658 663 667 671 676 680 684 689 691 698 704 711 718 723 728 733 739 746 753 761 770 775 775 779 784 786 794 798 803 806 810 815 819 823 826 830 833 837 841 844 847 850 852
653 659 664 668 673 678 683 688 694 698 704 710 717 724 728 735 741 748 754 757 764 769 773 778 781 785 790 795 799 803 806 811 816 820 824 828 831 835 839 842 845 847 849
653 656 662 666 671 676 681 687 693 698 703 709 715 720 728 736 741 747 753 757 762 766 770 774 779 783 787 791 795 799 804 808 813 817 822 825 829 833 836 839 842 844 846
655 657 661 666 670 675 679 685 691 696 703 709 714 719 724 731 737 743 749 754 759 763 766 770 775 779 784 787 791 796 800 805 809 814 818 823 827 830 833 836 839 841 842
657 658 661 665 669 674 679 683 688 694 701 706 712 719 726 730 736 742 747 750 754 759 763 767 771 775 779 784 788 793 797 801 806 810 814 819 822 826 829 832 834 836 838
658 659 662 666 669 675 679 683 689 694 699 704 710 717 723 727 732 738 744 748 751 756 760 764 768 772 776 781 785 789 793 797 801 806 810 814 818 821 824 826 829 831 833
659 662 664 667 670 674 679 683 688 693 697 702 708 713 718 723 728 734 741 745 748 753 757 761 766 769 774 778 783 787 790 794 798 802 806 810 813 816 819 821 824 826 828
662 663 665 667 670 673 677 682 686 691 695 700 705 710 715 720 725 731 736 740 744 749 754 758 763 768 772 775 779 783 787 791 795 798 802 806 809 811 814 816 819 822 824
664 665 666 668 671 673 676 679 684 688 692 697 702 708 713 717 723 727 732 736 739 744 750 754 759 764 769 773 777 780 784 788 791 795 798 801 805 807 809 812 815 818 821
Wind_Speed
30 27 29 28 30 31 32 33 34 33 35 35 35 35 31 29 40 36 34 33 34 28 27 26 17 20 21 17 32 30 27 29 23 21 28 22 23 20 17 10 9 11 12
21 13 13 20 29 32 30 33 35 34 34 33 33 33 31 28 24 34 35 35 36 30 27 28 21 21 20 21 23 25 15 23 36 28 28 24 20 19 18 12 17 15 8
13 20 30 28 31 31 31 33 34 36 34 31 30 30 29 32 28 27 33 35 32 30 28 27 25 25 24 22 23 21 26 31 31 33 27 24 22 20 20 16 15 10 7
1 5 13 25 31 33 34 35 37 36 40 38 30 31 30 28 35 31 32 33 29 28 26 23 28 25 27 25 25 27 32 33 31 30 26 26 22 21 18 19 17 15 11
15 16 23 28 26 27 29 33 35 39 39 41 38 35 32 32 34 35 35 34 31 28 24 26 23 24 22 26 29 31 35 33 29 25 20 20 21 19 19 17 16 12 9
10 16 18 21 24 24 28 29 34 34 37 39 37 38 34 25 31 32 34 33 27 27 27 27 27 26 25 26 28 30 31 34 27 23 19 18 20 17 16 16 15 12 4
6 11 17 20 22 23 26 29 32 33 35 34 34 37 33 32 31 29 24 26 29 29 29 27 25 24 26 27 26 25 23 21 24 26 25 25 24 21 21 16 13 11 5
2 8 15 19 22 27 28 28 31 34 36 38 35 34 35 32 28 26 28 30 30 26 27 28 29 29 29 31 32 31 29 26 23 23 22 21 20 17 14 12 11 10 12
5 10 16 20 22 26 25 26 28 31 30 30 33 31 33 32 28 33 30 28 28 26 26 26 31 31 31 30 33 32 30 27 23 25 25 24 22 20 16 15 12 12 11
5 10 16 20 22 23 26 29 27 28 28 32 26 30 31 35 35 35 29 30 30 28 27 26 25 33 30 28 32 32 31 26 26 24 22 20 17 15 15 15 16 5 8
5 10 15 21 23 24 25 29 30 28 28 27 26 29 30 35 35 29 30 31 32 31 29 33 33 30 31 27 25 27 30 28 25 24 21 18 16 13 12 11 11 10 9
7 14 18 21 23 24 26 25 29 28 26 23 28 25 27 34 33 28 30 33 32 33 28 35 33 30 29 28 25 25 28 26 23 22 20 17 14 12 10 10 9 7 7
10 15 21 21 25 25 28 21 21 24 25 23 23 22 23 26 29 27 26 30 28 28 31 35 33 28 27 27 26 24 26 24 22 21 19 17 15 11 10 11 10 8 8
11 15 21 21 22 25 25 24 22 23 22 24 23 23 25 26 24 26 33 33 29 29 33 34 34 30 30 30 27 24 22 21 21 20 20 17 13 14 12 9 7 7 3
14 17 18 18 21 22 23 21 25 25 29 28 27 30 32 30 29 34 34 33 30 33 35 32 30 27 27 27 26 23 21 21 19 21 19 16 16 15 10 12 10 6 4
15 17 19 19 19 20 19 24 22 24 27 23 27 28 25 28 33 35 32 31 33 38 31 28 25 23 23 24 24 23 22 23 20 20 17 18 17 16 12 10 7 7 4
14 18 20 20 21 20 21 23 19 22 29 27 30 29 30 36 37 36 34 35 37 34 26 26 25 24 23 23 23 23 24 24 21 20 19 18 16 15 14 12 9 7 6
20 21 22 22 22 21 21 21 24 24 23 26 29 31 31 35 38 37 37 36 33 23 24 24 23 24 24 23 23 22 21 22 21 20 18 18 17 16 16 13 13 11 9
23 22 21 22 23 24 23 22 22 22 22 24 27 29 32 37 39 37 38 32 30 23 23 23 24 24 24 23 24 23 23 24 22 20 18 18 19 17 15 15 14 13 12
20 23 22 22 23 24 24 24 24 23 23 24 24 27 33 37 35 34 31 26 26 24 25 24 24 24 23 22 24 24 24 24 23 21 20 19 19 20 17 16 15 14 15
17 22 22 21 21 23 24 25 24 24 23 23 23 30 35 33 31 31 29 27 26 25 24 25 25 25 26 20 23 25 25 24 24 23 22 20 20 21 20 17 15 16 13
18 19 20 18 21 21 21 23 23 24 24 24 24 29 35 28 28 28 25 24 26 25 24 24 24 24 23 25 22 26 25 24 23 24 23 22 21 21 20 20 19 16 17
17 19 19 18 19 21 21 22 21 22 23 24 25 30 32 25 27 26 25 24 27 27 25 26 19 21 23 23 23 24 24 25 24 24 23 22 22 22 22 21 21 19 18
16 17 17 17 19 20 19 21 21 22 23 23 26 28 29 24 26 26 27 28 28 26 24 24 24 17 21 23 23 22 22 22 23 22 22 22 22 21 20 21 21 18 18
14 16 16 17 18 19 20 21 22 23 23 25 24 25 27 22 26 27 28 30 28 26 26 25 22 23 20 23 24 23 21 21 20 21 21 20 20 20 22 21 19 15 17
13 15 15 18 19 19 20 21 23 23 25 25 25 25 27 25 28 27 27 27 25 24 25 26 23 22 24 21 20 21 22 21 21 20 20 21 20 16 18 18 17 15 16
Wind_Direction
234 228 211 212 214 216 218 211 204 193 188 186 184 191 186 185 173 171 170 170 171 168 168 172 161 162 176 176 167 166 179 164 135 147 153 155 160 155 152 168 155 133 128
226 282 199 209 210 211 206 202 198 192 188 180 182 183 173 164 171 162 163 162 161 159 161 167 155 158 183 179 168 167 167 166 141 137 149 152 154 167 161 157 168 149 118
234 218 211 206 209 206 199 198 193 185 183 178 173 167 166 164 165 165 158 154 155 153 157 164 154 173 177 171 154 151 140 142 140 139 146 159 160 162 159 161 144 135 133
82 194 187 206 208 200 194 188 182 176 175 169 164 161 160 157 154 155 151 142 146 152 159 153 170 172 164 160 160 150 143 138 140 138 147 151 158 159 166 160 158 162 142
249 233 232 216 202 191 178 171 164 162 159 159 154 150 151 152 151 154 152 145 149 150 149 160 154 153 157 159 153 148 144 138 138 138 139 148 159 160 166 164 169 168 160
250 229 217 195 184 172 163 155 149 147 147 147 143 143 144 141 158 153 153 138 144 145 147 149 142 149 154 150 149 150 153 145 140 143 146 154 168 165 175 159 153 153 155
248 211 191 177 162 155 152 149 145 147 145 143 141 146 149 156 167 160 148 149 160 159 163 149 146 155 161 153 145 134 139 152 161 161 159 161 161 171 156 161 173 183 159
207 160 166 159 153 152 146 144 142 144 145 148 152 152 150 155 159 151 160 165 159 162 162 152 157 154 157 150 138 134 128 128 141 154 158 145 149 147 150 162 158 138 135
160 167 166 158 148 149 144 144 142 142 143 145 150 148 149 152 158 156 151 153 152 153 152 161 158 157 155 150 149 137 127 118 137 144 146 151 157 159 164 151 153 171 163
197 184 173 159 152 151 146 142 139 141 139 143 135 146 153 155 157 156 160 150 145 148 153 151 157 149 152 153 152 146 131 136 142 143 144 149 157 151 150 150 157 181 134
168 169 172 163 154 149 143 143 140 136 137 143 138 150 159 164 168 159 155 152 145 141 146 149 155 156 154 157 154 153 151 148 146 139 134 131 131 136 141 147 155 156 138
157 150 154 152 146 144 140 142 142 143 147 141 132 136 152 163 160 160 158 158 153 149 148 152 155 156 152 149 153 149 147 145 138 130 131 133 132 133 133 132 140 145 161
149 157 153 147 146 146 142 143 145 144 139 136 137 139 145 160 160 158 162 161 155 149 157 156 155 150 145 154 154 150 144 142 143 142 145 142 151 151 132 117 110 108 110
152 164 165 154 152 151 154 151 149 150 151 151 147 146 151 158 159 160 159 155 152 151 152 151 157 153 152 148 147 148 148 154 153 154 154 157 155 138 124 125 118 109 106
157 164 168 166 159 159 162 164 160 167 168 166 166 160 158 168 167 161 157 154 151 153 148 148 147 152 150 151 152 151 157 158 155 163 162 155 145 144 152 149 148 149 158
154 166 172 171 168 161 152 147 163 169 175 177 169 163 166 166 162 163 159 156 159 158 150 152 157 158 158 157 157 160 166 165 164 168 164 157 157 157 156 152 152 162 187
174 173 173 171 171 163 157 150 137 168 177 176 172 169 168 168 163 161 162 165 166 157 157 163 164 162 160 162 166 168 169 174 172 170 166 165 164 166 168 167 172 180 199
175 176 176 177 175 170 164 157 148 147 150 153 167 168 171 170 163 162 165 160 160 170 163 164 165 162 167 169 170 170 173 174 176 173 172 173 172 176 174 180 190 199 209
174 172 172 171 172 169 161 155 155 152 150 150 153 164 169 166 162 164 167 162 168 172 170 168 169 169 172 174 175 175 175 176 177 177 180 181 184 183 192 195 205 211 211
165 168 169 164 166 166 161 156 155 152 151 153 156 155 157 157 160 165 171 172 177 177 171 169 172 176 178 180 179 178 178 179 181 184 186 190 195 198 202 207 209 211 216
164 162 160 161 161 162 154 155 156 154 158 160 160 162 165 167 168 173 178 180 182 181 173 174 175 179 186 183 184 178 178 180 186 190 196 198 199 202 211 217 222 213 214
162 159 160 159 151 148 150 154 159 157 161 159 157 165 172 171 173 177 183 178 181 184 180 175 180 188 191 192 188 185 184 186 190 196 201 205 208 213 213 217 221 227 220
163 157 159 161 156 161 159 158 158 158 159 160 160 166 173 175 175 180 184 184 182 187 188 191 184 186 194 193 194 199 200 197 198 203 206 208 209 213 214 216 218 223 219
170 166 167 165 162 159 156 155 157 159 160 162 166 172 175 179 177 178 182 183 185 189 189 191 198 190 191 198 204 206 207 206 205 210 213 209 211 216 217 220 219 222 211
183 174 172 167 165 165 158 160 162 165 166 166 167 171 179 183 173 177 181 184 188 195 200 201 199 201 197 201 201 199 203 205 211 214 214 217 217 221 223 214 213 203 195
203 194 184 177 175 172 171 169 172 171 168 170 169 177 185 185 184 185 181 189 192 198 202 205 201 199 202 206 204 204 207 208 212 214 209 208 217 218 205 199 195 187 192